Flag for Madagascar

Past Weather in Toamasina, Madagascar — Yesterday and Last 2 Weeks

Now
68 °F

Scattered showers. Passing clouds.


Feels Like: 68 °F
Forecast: 77 / 65 °F
Wind: 5 mph from West

Location: Tamatave
Current Time: Sep 23, 2020 at 4:12:40 am
Latest Report: Sep 23, 2020 at 3:00 am
Visibility: N/A
Pressure30.07 "Hg
Humidity: 94%
Dew Point: 66 °F
Location of ToamasinaLocation

Past Weather in Toamasina — Graph

°F

Toamasina Temperature Yesterday

Maximum temperature yesterday: 81 °F (at 9:00 am)
Minimum temperature yesterday: 66 °F (at 3:00 am)
Average temperature yesterday: 72 °F

High & Low Weather Summary for the Past Weeks

 TemperatureHumidityPressure
High81 °F (Sep 9, 11:00 am)100% (Sep 8, 4:31 am)30.24 "Hg (Sep 8, 4:31 am)
Low61 °F (Sep 17, 2:00 am)2% (Sep 12, 7:00 pm)30.04 "Hg (Sep 11, 2:00 pm)
Average72 °F85%30.13 "Hg
* Reported Sep 8 2:08 am — Sep 23 2:00 am, Toamasina. Weather by CustomWeather, © 2020

Note: Actual official high and low records may vary slightly from our data, if they occured in-between our weather recording intervals... More about our weather records

Toamasina Weather History for the Previous 24 Hours

Scroll right to see more
 ConditionsComfort  
Time TempWeatherWind HumidityBarometerVisibility
2:00 am
Wed, Sep 23
68 °FScattered showers. Partly cloudy.5 mph94%30.09 "Hg5 mi
1:00 am68 °FScattered showers. Partly cloudy.6 mph94%30.09 "Hg5 mi
12:00 am66 °FScattered showers. Passing clouds.5 mph94%30.12 "HgN/A
11:00 pm
Tue, Sep 22
66 °FPassing clouds.5 mph94%30.12 "HgN/A
10:00 pm66 °FPassing clouds.2 mph94%30.12 "HgN/A
9:00 pm68 °FPassing clouds.2 mph94%30.12 "HgN/A
8:00 pm68 °FPassing clouds.1 mph94%30.09 "HgN/A
7:00 pm73 °FPassing clouds.2 mph94%30.09 "HgN/A
6:00 pm73 °FPassing clouds.5 mph83%30.09 "HgN/A
5:00 pm77 °FPassing clouds.6 mph74%30.07 "HgN/A
4:00 pm79 °FPassing clouds.8 mph70%30.07 "HgN/A
3:00 pm79 °FPassing clouds.8 mph70%30.07 "HgN/A
2:00 pm79 °FPassing clouds.8 mph70%30.07 "HgN/A
1:00 pm79 °FPassing clouds.9 mph74%30.07 "HgN/A
12:00 pm79 °FPassing clouds.8 mph74%30.09 "HgN/A
11:00 am81 °FScattered clouds.7 mph74%30.12 "HgN/A
10:00 am77 °FScattered clouds.5 mph79%30.12 "HgN/A
9:00 am81 °FScattered clouds.5 mph66%30.12 "HgN/A
8:00 am75 °FPartly sunny.5 mph89%30.12 "HgN/A
7:00 am70 °FScattered showers. Partly sunny.1 mph94%30.12 "HgN/A
6:00 am68 °FScattered showers. Broken clouds.2 mph94%30.09 "HgN/A
5:00 am66 °FScattered showers. Partly cloudy.No wind94%30.09 "HgN/A
4:00 am66 °FScattered showers. Partly cloudy.No wind94%30.09 "HgN/A
Weather by CustomWeather, © 2020

See weather overview